Tracking 18794 objects as of 21-September-2017
HD Live streaming from Space Station
objects crossing your sky now

COSMOS 2448 (GLONASS)

Track COSMOS 2448 (GLONASS) now!
COSMOS 2448 (GLONASS) is classified as:


NORAD ID: 33468
Int'l Code: 2008-067C
Perigee: 19,122.8 km
Apogee: 19,149.0 km
Inclination: 63.9 °
Period: 675.7 minutes
Semi major axis: 25506 km
RCS: 3.1623 m2 (large)
Launch date: December 25, 2008
Source: Commonwealth of Independent States (former USSR) (CIS)
Launch site: TYURATAM MISSILE AND SPACE COMPLEX (TTMTR)
SV:

This is satellite part of Glonass family.
aabbcc
Your satellite tracking list
Your tracking list is empty





NASA's NSSDC Master Catalog

Two Line Element Set (TLE):
1 33468U 08067C   17263.87043796 -.00000001  00000-0  00000+0 0  9999
2 33468  63.9440 179.5779 0005125 295.8674  64.1088  2.13116220 68022
Source of the keplerian elements: AFSPC